Find Starlink 1356

NORAD ID: 45564 Int'l Des: 2020-025 Owner: SPXS Country: US Constellation: starlink operational
LEOCIRCULAR

实时位置

正在加载3D地球...

关于 Starlink 1356

正在加载描述...

即将过境

Passes for default location (London). Set your location on the main map for personalized predictions.

高度历史

Loading altitude history...

两行轨道根数

1 45564U 20025AK 26118.93541496 .00081283 00000-0 12967-2 0 9991
2 45564 53.0478 193.1941 0003208 317.0211 43.0547 15.52532497333330
Epoch: Apr 28, 2026 • Age: 6 hours

当前状态

高度 410.6 km
速度 7.67 km/s
星下点 -12.31°S, 103.04°W
发射日期 Apr 22, 2020
运行时间 6 years
类型 internet

技术详情

分类 Payload
质量 260.00 kg
干质量 248.00 kg
总质量 260.00 kg
长度 0.20 m
直径 2.80 m
跨度 9.00 m
形状 Box + pan
制造商 SPXS
平台类型 Starlink
阶段状态 In Orbit
所有者/国家 SPXS/US

Most Searched